Home > Weather > Wermelskirchen > Past weeks

Flag for Germany Past Weather in Wermelskirchen, North Rhine-Westphalia, Germany — Yesterday and Last 2 Weeks

Now
79 °F

Partly sunny.


Feels Like: 80 °F
Forecast: 60 / 72 °F
Wind: 8 mph from West

Location: Koeln / Bonn

Current Time: Jul 25, 2016 at 4:05:42 PM

Latest Report: Jul 25, 2016 at 3:20 PM


Visibility: N/A

Pressure: 30.09 "Hg

Humidity: 51%

Dew Point: 59 °F

Location of WermelskirchenLocation

Past Weather in Wermelskirchen — Graph

°F

Wermelskirchen Temperature Yesterday

Maximum temperature yesterday: 82 °F (at 4:50 PM)
Minimum temperature yesterday: 63 °F (at 12:50 AM)
Average temperature yesterday: 71 °F

High & Low Weather Summary for the Past Weeks

 TemperatureHumidityPressure
High93 °F (Jul 20, 3:20 PM)100% (Jul 13, 4:20 AM)30.30 "Hg (Jul 13, 4:20 AM)
Low48 °F (Jul 14, 4:20 AM)32% (Jul 20, 3:20 PM)29.77 "Hg (Jul 10, 7:50 PM)
Average69 °F72%30.06 "Hg
* Reported Jul 10 2:20 PM — Jul 25 2:50 PM, Wermelskirchen, Weather by CustomWeather, © 2016

Note: Actual official high and low records may vary slightly from our data, if they occured in-between our weather recording intervals... More about our weather records

Advertising

Wermelskirchen Weather History for the Previous 24 Hours

Scroll right to see more
 ConditionsComfort  
Time TempWeatherWind HumidityBarometerVisibility
2:50 PM
Mon, Jul 25
79 °FPartly sunny.7 mph54%30.09 "HgN/A
2:20 PM79 °FPartly sunny.7 mph58%30.09 "HgN/A
1:50 PM79 °FBroken clouds.7 mph54%30.09 "HgN/A
1:20 PM81 °FScattered clouds.7 mph51%30.09 "HgN/A
12:50 PM79 °FScattered clouds.5 mph51%30.09 "HgN/A
12:20 PM77 °FPartly sunny.6 mph54%30.09 "HgN/A
11:50 AM75 °FPartly sunny.3 mph57%30.09 "HgN/A
11:20 AM75 °FBroken clouds.6 mph57%30.09 "HgN/A
10:50 AM73 °FBroken clouds.7 mph65%30.09 "HgN/A
10:20 AM72 °FBroken clouds.8 mph69%30.09 "HgN/A
9:50 AM72 °FBroken clouds.5 mph73%30.09 "HgN/A
9:20 AM72 °FBroken clouds.3 mph73%30.09 "HgN/A
8:50 AM70 °FScattered clouds.2 mph78%30.09 "HgN/A
8:20 AM70 °FBroken clouds.1 mph78%30.09 "HgN/A
7:50 AM66 °FBroken clouds.1 mph88%30.09 "HgN/A
7:20 AM64 °FBroken clouds.1 mph94%30.09 "HgN/A
6:50 AM64 °FFog.No wind94%30.09 "HgN/A
6:20 AM64 °FClear.1 mph94%30.09 "Hg10 mi
5:50 AM64 °FClear.1 mph94%30.09 "Hg10 mi
5:20 AM64 °FClear.1 mph94%30.09 "Hg10 mi
4:50 AM66 °FPassing clouds.3 mph88%30.09 "HgN/A
4:20 AM66 °FClear.1 mph88%30.09 "Hg10 mi
3:50 AM66 °FClear.1 mph88%30.09 "Hg10 mi
3:20 AM66 °FClear.1 mph94%30.09 "Hg10 mi
2:50 AM68 °FClear.1 mph88%30.09 "Hg10 mi
2:20 AM66 °FClear.No wind94%30.09 "Hg10 mi
1:50 AM68 °FClear.2 mph88%30.09 "Hg10 mi
1:20 AM68 °FClear.1 mph88%30.09 "Hg10 mi
12:50 AM70 °FClear.2 mph83%30.09 "Hg10 mi
12:20 AM70 °FClear.No wind88%30.09 "Hg10 mi
11:50 PM
Sun, Jul 24
70 °FClear.2 mph83%30.09 "Hg10 mi
11:20 PM72 °FClear.5 mph78%30.09 "Hg10 mi
10:50 PM72 °FClear.5 mph78%30.09 "Hg10 mi
10:20 PM70 °FSunny.1 mph83%30.09 "Hg10 mi
9:50 PM70 °FSunny.3 mph83%30.07 "Hg10 mi
9:20 PM73 °FSunny.5 mph74%30.07 "Hg10 mi
8:50 PM73 °FScattered clouds.5 mph74%30.07 "HgN/A
8:20 PM75 °FScattered clouds.6 mph69%30.07 "HgN/A
7:50 PM79 °FPassing clouds.5 mph61%30.07 "HgN/A
7:20 PM77 °FScattered clouds.5 mph65%30.07 "HgN/A
6:50 PM79 °FScattered clouds.5 mph58%30.07 "HgN/A
6:20 PM81 °FPartly sunny.7 mph51%30.07 "HgN/A
5:50 PM81 °FPartly sunny.7 mph54%30.07 "HgN/A
5:20 PM81 °FPartly sunny.7 mph51%30.07 "HgN/A
4:50 PM82 °FPartly sunny.2 mph48%30.07 "HgN/A
4:20 PM81 °FPartly sunny.3 mph51%30.07 "HgN/A
Weather by CustomWeather, © 2016

See weather overviewHow to use our weather pages